Temp
19 18 18 18 18 18 18 18 18 18 18 18 18 18 18 18 18 19 19 19 19 19 19 18 18 17 17 17 16 16 16 16 16
19 19 18 18 18 18 18 18 18 18 18 18 18 18 17 17 18 18 19 19 19 19 19 19 18 17 17 17 16 16 16 16 16
18 18 18 18 18 18 18 18 18 18 18 18 18 18 17 17 17 18 19 19 19 19 19 19 18 17 17 17 17 16 16 16 16
17 17 17 17 17 18 18 18 18 18 18 18 18 18 17 17 18 18 18 19 18 19 18 19 19 17 17 17 17 17 17 16 16
17 17 17 16 16 16 16 16 17 17 17 17 18 18 18 18 18 18 18 19 18 18 18 18 18 18 17 17 17 17 17 17 16
16 16 16 16 16 16 16 16 16 16 16 16 17 17 18 18 18 18 18 18 18 18 18 18 17 17 17 17 17 17 17 17 17
16 16 16 16 15 15 15 15 15 15 15 15 16 16 17 17 17 18 18 18 18 17 17 17 17 17 16 17 17 17 16 16 17
15 15 15 15 15 15 15 14 14 14 14 15 15 15 16 16 16 17 17 17 17 17 16 16 16 17 16 16 16 16 16 16 16
14 14 14 14 14 14 14 14 13 13 14 14 14 15 15 15 16 16 16 16 16 16 16 16 15 15 15 15 15 15 15 16 16
13 13 13 13 13 13 13 13 13 13 13 13 14 14 14 15 15 15 15 15 15 15 15 15 15 15 15 15 15 15 15 15 15
12 12 12 12 12 12 12 12 12 13 13 13 13 14 14 14 15 14 14 14 14 14 14 15 15 14 14 14 14 14 14 15 15
12 12 12 12 12 12 12 12 12 12 13 13 13 13 14 14 14 14 14 14 14 14 14 14 14 14 14 14 14 14 14 14 14
12 11 11 12 12 12 12 12 12 12 12 13 13 13 13 14 14 14 14 14 14 13 13 13 13 13 14 14 14 14 13 13 13
11 11 11 11 12 12 12 12 11 12 12 12 12 13 13 13 13 13 13 13 13 13 13 13 13 14 14 14 14 13 13 12 12
11 11 11 11 11 11 12 11 11 11 11 12 12 13 14 13 13 13 14 14 13 14 13 13 13 13 13 13 12 12 12 12 13
11 11 10 11 11 11 11 11 11 11 11 11 12 13 13 13 13 13 13 13 13 14 14 14 13 13 13 13 12 12 11 12 13
11 10 10 10 10 10 10 11 11 10 10 10 9 8 12 12 12 12 13 13 13 13 13 13 13 13 12 12 12 12 10 12 13
11 11 10 10 10 10 10 10 10 10 10 11 10 8 7 8 11 11 11 12 12 13 13 13 13 12 12 11 11 11 11 10 11
12 11 11 10 9 9 9 10 10 10 10 10 11 11 10 7 7 10 11 11 12 12 13 12 12 12 11 11 11 11 11 9 10
12 12 11 10 10 9 9 9 9 10 10 10 10 10 10 10 10 9 9 10 11 12 12 11 12 12 11 11 10 10 10 9 9
Height
844 843 842 841 840 838 837 836 835 834 833 832 832 831 830 829 829 828 828 827 827 827 827 827 826 826 826 826 826 825 826 825 825
843 842 841 840 839 837 836 835 834 832 831 831 830 829 828 827 827 826 825 825 825 825 825 825 825 825 824 824 824 824 824 824 824
843 841 840 839 838 836 835 833 832 831 830 829 828 827 826 825 824 824 823 823 823 822 822 822 821 822 822 822 822 822 822 822 823
842 841 839 838 836 835 833 831 830 829 827 826 825 824 824 823 822 821 820 819 820 820 819 818 818 818 819 819 819 819 819 820 820
842 840 839 837 835 834 832 830 828 826 825 823 822 821 820 820 819 817 816 817 816 816 816 815 815 815 816 816 816 815 815 816 817
841 839 838 836 834 832 831 829 827 825 823 821 820 819 817 817 816 814 813 813 813 813 813 813 813 812 813 812 812 812 812 812 813
839 837 836 834 832 831 829 828 826 824 822 820 818 816 815 814 813 813 811 809 809 810 810 810 809 809 809 809 809 808 808 809 809
838 836 834 832 830 829 827 825 824 822 820 818 816 814 813 811 810 809 809 808 807 807 807 807 806 806 806 807 806 805 805 804 804
837 834 832 830 829 827 825 823 821 820 818 816 814 813 811 809 808 807 806 806 805 805 805 804 804 804 803 804 804 803 802 801 800
836 834 832 830 828 826 823 822 819 818 816 814 812 810 809 808 806 805 804 803 803 803 803 802 802 801 801 801 800 800 799 799 798
836 834 831 830 828 825 823 821 819 817 815 812 810 808 807 805 805 804 803 802 801 801 800 800 800 800 799 798 797 797 796 795 795
836 833 831 830 827 825 823 822 820 817 814 811 808 807 805 804 803 802 802 801 800 799 799 799 798 798 797 796 796 795 794 793 792
835 833 831 830 828 826 823 821 819 817 814 810 807 805 803 802 802 802 801 800 800 799 798 798 797 797 795 795 794 793 792 790 789
834 833 831 829 827 826 824 822 819 816 813 809 805 804 802 803 802 802 801 800 799 799 797 797 797 796 794 794 793 792 790 789 786
834 832 830 828 827 825 823 822 819 816 813 808 803 801 802 803 803 802 802 801 799 798 797 797 796 796 794 793 792 791 788 786 784
833 831 829 828 827 825 824 821 819 816 813 808 802 802 803 803 803 803 801 800 799 798 798 797 796 795 794 793 791 788 787 785 782
831 830 828 827 826 825 824 822 820 819 815 813 809 809 807 805 805 804 802 800 799 797 797 797 796 795 793 792 791 788 785 784 780
830 828 828 827 826 824 823 822 821 819 817 815 814 814 816 811 806 804 803 801 800 798 798 797 796 796 794 792 790 787 784 783 778
828 827 827 826 825 824 823 821 820 819 819 817 815 816 815 816 813 805 804 802 800 799 799 798 796 796 794 792 790 787 783 780 776
826 825 824 823 823 822 822 821 819 819 818 818 817 816 815 814 814 811 807 802 801 799 800 799 796 795 794 792 789 786 782 778 775
Wind_Speed
7 7 6 6 7 6 8 9 10 11 11 12 12 11 10 10 9 7 7 8 11 9 8 8 7 8 8 7 6 5 5 4 3
8 8 8 9 9 9 10 10 10 10 11 13 14 14 13 13 12 9 7 8 11 10 10 11 9 10 11 10 9 8 8 7 6
9 9 10 11 12 12 12 13 14 14 14 14 14 14 14 15 16 14 10 9 14 16 14 14 12 11 12 13 13 12 10 10 9
9 13 13 14 17 15 15 15 15 16 17 17 16 16 15 15 17 18 18 16 14 16 16 15 13 13 12 13 15 16 15 13 12
11 14 13 15 14 16 16 14 14 15 16 16 16 15 17 15 17 19 20 18 19 18 17 16 15 13 14 15 16 15 17 17 15
10 13 13 13 16 17 15 14 16 15 16 14 13 14 12 14 17 19 17 18 18 18 16 16 15 13 16 17 18 18 17 16 19
10 10 12 13 15 15 14 17 15 15 16 16 16 15 14 14 14 13 12 13 16 15 13 13 13 15 15 15 16 18 17 18 19
12 13 14 15 15 16 18 16 16 17 18 18 16 15 15 15 15 14 13 13 8 9 9 10 13 17 17 16 16 16 16 19 19
15 16 16 15 15 17 16 18 19 18 18 17 16 16 16 16 16 16 14 12 8 7 9 10 12 14 15 14 14 14 15 14 16
17 17 17 15 15 16 19 19 18 18 17 17 16 14 15 14 14 14 14 12 10 8 9 10 12 13 13 13 14 14 14 14 14
17 18 16 15 17 19 16 15 17 17 17 17 16 15 14 12 11 11 11 11 11 10 8 9 9 9 11 10 11 12 13 14 15
15 17 14 15 18 16 14 15 16 17 18 17 17 16 14 12 9 10 9 9 8 8 7 7 5 8 8 7 7 8 9 10 11
15 16 12 14 16 14 17 14 17 18 19 19 20 15 14 8 7 7 7 7 9 9 6 5 6 9 8 7 8 8 9 11 12
15 14 12 12 14 15 15 15 15 18 21 21 18 16 6 5 5 7 8 8 9 8 7 4 4 7 8 8 8 10 10 13 14
13 12 11 12 13 13 15 15 18 17 21 20 22 6 2 4 5 7 8 11 10 8 7 6 6 8 8 8 11 13 13 15 16
13 11 11 11 12 14 15 15 17 19 23 14 17 10 4 3 2 6 8 9 13 9 8 7 7 6 7 10 13 13 15 17 17
12 12 11 11 11 12 13 14 14 13 18 12 5 4 4 12 10 12 12 14 13 8 9 9 7 6 8 11 13 16 17 18 20
12 11 11 9 10 11 11 11 11 13 15 17 5 3 2 6 5 10 15 16 13 12 7 6 5 8 8 12 14 18 18 18 20
13 12 12 10 10 10 10 10 10 9 9 12 11 5 4 2 4 7 13 18 13 12 8 4 5 8 9 13 16 19 21 20 20
13 13 13 12 9 9 10 11 10 9 8 8 8 6 6 4 2 4 11 19 18 15 11 3 4 6 10 15 16 20 23 22 21
Wind_Direction
356 352 346 332 322 319 312 312 309 309 312 312 310 310 309 309 310 285 282 293 270 276 279 291 268 244 254 268 250 248 232 245 231
348 340 334 327 321 317 313 308 305 300 297 299 297 294 295 296 298 297 274 290 268 267 274 287 272 258 259 259 250 245 245 244 245
347 335 330 325 323 314 307 303 300 297 297 298 296 294 290 289 287 286 274 269 265 274 274 281 270 261 261 264 251 245 247 238 236
349 339 335 328 323 317 312 308 304 302 300 298 296 294 290 286 288 284 275 273 266 256 251 270 275 268 266 268 271 255 245 240 239
342 335 341 340 343 344 338 328 325 323 320 312 304 302 289 286 293 289 276 280 273 267 251 261 268 273 269 267 267 273 258 246 239
344 342 343 338 337 339 338 336 328 328 326 325 322 319 319 290 304 310 284 284 283 280 263 272 280 282 283 275 270 267 270 263 252
335 336 333 331 335 332 332 328 328 320 323 326 315 309 316 311 312 316 330 291 280 281 285 287 291 297 305 306 294 273 267 263 257
335 326 327 328 332 329 325 327 324 323 319 316 312 316 314 309 303 308 318 322 313 298 303 301 294 290 296 304 304 312 296 274 262
341 337 337 335 334 332 330 324 325 329 330 330 326 319 316 309 307 304 311 331 331 306 305 307 309 308 302 299 298 301 306 323 290
342 342 343 344 340 335 328 328 334 336 336 329 332 325 320 320 315 313 307 307 323 319 305 306 306 307 301 290 291 295 299 301 306
344 345 350 348 339 334 341 344 342 341 339 337 334 332 329 330 321 321 320 317 314 322 321 310 313 314 315 303 298 300 301 300 300
341 343 348 349 347 348 355 353 349 344 341 338 335 331 330 331 339 333 345 348 341 333 342 337 326 330 336 334 334 330 324 319 314
338 344 350 350 348 353 346 350 346 346 341 334 334 328 327 338 4 12 11 7 353 344 341 10 354 348 334 338 346 349 354 346 332
337 343 346 344 343 348 349 346 356 349 351 343 336 325 349 351 32 23 28 24 9 4 6 353 12 15 12 10 4 2 353 336 328
335 341 344 340 347 348 356 359 353 351 351 341 337 17 4 69 32 34 34 21 10 5 19 27 30 25 20 15 357 354 343 336 333
336 338 334 332 347 348 351 353 348 350 355 349 358 29 104 50 145 19 32 20 17 35 30 27 32 47 12 358 356 5 8 354 341
330 332 334 333 337 340 340 346 345 346 354 349 342 3 12 12 73 43 30 10 27 22 41 45 43 29 14 23 22 19 14 359 353
327 325 321 333 326 325 327 333 339 339 345 352 34 5 339 338 338 14 16 8 22 34 33 52 37 14 19 20 17 14 10 2 356
313 312 313 307 318 310 317 320 324 333 340 344 6 360 357 349 328 329 354 4 12 13 24 83 46 28 18 5 8 9 4 5 358
298 294 299 306 303 298 303 308 309 314 316 320 321 323 322 285 299 307 335 351 352 348 359 135 29 28 6 352 3 3 1 5 357